Wind_Speed
20 21 20 21 21 21 21 21 21 21 21 21 21 21 21 21 21 21 20 19 19 19 19 19 19 19 20 20 20 20 20 20 20 20 20 21 22 22 22 21 21 21 21
21 21 22 22 22 22 22 22 22 22 22 22 22 22 22 22 21 21 21 20 20 20 20 20 21 22 21 21 21 22 22 21 21 20 21 21 22 22 22 22 21 21 22
22 22 22 23 23 22 22 23 22 22 23 23 23 22 22 22 22 22 22 21 21 21 21 21 21 22 22 23 23 23 23 23 23 22 22 21 22 22 22 21 21 22 22
22 22 22 22 23 22 22 22 22 22 23 23 23 23 23 23 23 23 22 22 22 22 22 22 22 22 23 24 24 24 25 24 24 23 22 22 22 22 22 21 21 21 21
22 23 23 23 23 23 23 23 23 23 23 23 23 24 23 23 23 22 22 23 23 23 23 23 23 24 23 24 24 24 25 25 24 24 23 23 22 22 22 22 22 21 20
23 23 24 24 23 23 23 23 23 24 24 24 24 24 24 24 24 24 24 24 24 25 25 25 25 25 25 25 25 25 25 25 24 24 24 24 23 23 23 22 21 20 20
23 23 23 24 24 24 24 24 24 24 24 25 25 25 25 24 24 25 25 25 26 26 26 26 26 26 26 26 26 26 26 26 25 25 25 24 24 24 23 23 22 21 21
24 24 24 25 25 25 26 25 25 25 25 25 25 25 25 25 25 26 26 26 26 27 27 27 27 27 27 27 27 27 27 27 26 26 26 25 25 25 24 24 23 23 22
25 25 25 25 26 26 25 25 25 26 26 27 27 26 26 27 27 27 27 27 27 28 28 28 28 28 28 28 28 28 28 28 27 27 27 27 26 26 25 25 25 25 24
25 26 26 27 27 26 27 26 27 27 27 27 27 27 28 28 27 27 28 28 28 28 28 28 28 28 28 28 29 29 29 28 28 27 27 27 27 27 27 28 27 26 26
26 27 27 28 28 28 28 28 28 28 29 29 28 28 28 28 28 29 29 30 30 29 29 29 29 29 29 29 29 29 29 29 29 28 28 28 28 28 29 29 28 28 28
27 27 28 29 29 29 30 30 30 31 31 30 29 29 28 28 29 30 30 30 31 30 30 30 30 31 31 31 31 31 30 30 30 30 30 30 30 29 29 30 30 30 30
28 28 28 29 30 31 31 31 32 32 32 31 30 29 29 29 30 30 31 31 31 31 31 31 31 32 32 32 32 32 32 31 31 31 32 32 32 32 31 31 31 31 31
29 30 30 31 31 32 32 33 33 33 33 32 31 31 30 30 30 31 31 31 31 31 31 31 31 31 32 32 33 32 33 33 33 33 33 34 33 32 32 32 31 31 32
31 31 32 32 33 33 34 34 33 33 33 33 32 31 31 31 31 31 31 31 31 31 31 31 31 32 32 32 33 33 33 33 33 33 33 33 33 32 31 32 32 32 32
32 33 33 34 34 34 34 34 33 34 33 33 32 32 32 32 32 32 32 32 31 31 31 30 31 31 31 32 32 32 33 33 33 33 33 33 34 33 33 33 33 33 33
34 34 35 35 35 35 35 35 34 34 34 33 33 33 33 33 33 33 33 33 32 32 32 31 32 32 32 32 32 32 32 33 33 33 34 34 35 35 34 34 34 34 34
35 36 36 36 36 36 36 36 35 35 34 34 34 34 33 33 33 33 33 33 33 33 33 33 33 33 33 33 33 33 33 33 33 34 35 35 35 35 35 35 35 34 34
36 36 36 36 36 36 36 35 35 34 34 34 35 34 33 33 34 34 34 33 33 34 34 33 33 33 33 33 34 34 34 34 34 35 35 35 35 35 34 34 34 34 34
36 37 37 36 36 36 35 35 35 34 34 34 34 34 34 34 34 34 34 33 33 33 33 33 32 33 33 33 33 33 34 34 34 34 34 34 34 34 34 33 33 34 34
37 36 36 36 36 36 35 35 35 34 34 34 33 33 33 34 33 33 33 33 32 32 31 31 31 31 32 32 32 32 32 33 33 33 34 34 34 34 33 33 33 33 33
36 35 35 35 35 35 35 35 35 35 35 34 34 34 34 34 34 34 33 33 32 31 31 31 31 31 32 33 32 32 32 32 33 33 34 34 33 33 33 34 34 33 33
35 35 35 34 34 34 34 34 34 34 35 35 34 34 34 33 32 32 32 31 31 31 31 31 31 31 32 32 32 31 31 31 32 33 33 32 32 32 32 32 33 33 33
35 34 34 34 33 33 33 33 33 34 34 34 34 34 33 32 32 32 32 31 31 31 30 30 31 31 31 31 31 31 31 31 32 32 32 32 32 32 32 32 32 33 33
34 34 34 33 33 33 33 33 33 33 33 33 33 33 33 32 32 33 32 32 31 31 31 31 31 31 31 31 31 31 31 31 31 33 33 33 32 32 33 33 33 33 33
33 33 33 33 33 33 32 32 32 32 33 33 33 33 32 32 32 32 32 31 31 31 31 31 31 31 31 31 31 32 31 30 31 32 32 32 33 32 33 33 33 33 34
Wind_Direction
294 297 298 300 300 300 298 297 295 294 291 290 289 288 286 285 286 286 284 281 279 278 275 274 274 274 276 277 277 278 280 284 285 283 284 284 284 283 282 282 281 281 279
293 296 297 300 301 301 300 298 297 294 292 290 289 288 286 284 284 284 283 281 280 277 275 274 275 275 275 276 278 278 279 281 283 283 285 286 285 285 284 283 281 281 280
293 295 297 299 301 301 301 301 299 297 294 291 289 288 286 284 283 284 282 280 279 278 276 275 276 276 275 276 278 278 278 278 279 281 284 286 287 287 286 284 282 281 279
293 294 296 299 300 300 300 301 300 298 296 293 291 288 286 284 283 283 281 279 279 277 276 276 276 276 277 278 278 278 278 278 278 279 282 283 284 286 285 284 283 281 279
292 293 295 297 298 297 298 299 299 297 297 295 293 290 287 285 283 281 279 279 279 277 276 276 277 278 278 278 278 278 278 278 279 278 278 279 281 283 283 282 283 282 278
290 291 294 296 299 298 299 299 299 298 296 294 293 291 288 285 283 282 279 279 279 278 276 277 277 278 278 277 278 277 277 277 277 276 277 278 279 281 280 279 279 279 278
289 290 292 294 297 299 299 297 297 296 295 293 293 291 289 285 283 282 281 280 279 278 277 276 276 276 278 278 277 276 276 276 275 275 276 277 278 279 277 275 275 275 278
287 288 290 292 294 296 298 296 295 295 294 293 293 292 289 285 283 282 281 280 278 277 277 277 276 276 277 277 276 276 276 276 275 275 275 275 277 277 276 273 272 275 276
287 288 289 290 292 293 296 296 295 295 295 293 292 291 289 287 285 283 282 281 279 278 279 278 277 276 276 276 275 274 275 275 275 275 274 274 275 276 276 275 274 275 274
289 289 290 291 292 293 294 295 295 295 294 294 293 291 290 288 285 284 283 281 280 279 278 278 277 277 276 277 275 274 274 273 272 272 272 273 274 275 276 276 274 273 272
288 289 290 291 292 293 293 294 295 295 293 293 293 292 289 288 286 284 282 282 280 279 278 277 277 276 276 276 276 276 275 273 270 270 271 273 276 276 274 273 273 273 273
288 288 289 290 292 292 293 294 294 294 293 292 292 291 289 287 286 285 283 283 282 280 278 277 276 275 275 275 276 276 275 273 271 271 273 275 277 276 275 273 272 272 273
288 288 289 291 292 292 292 294 295 295 295 293 292 291 290 288 287 286 284 283 282 279 278 278 276 275 274 274 274 273 272 271 271 272 273 275 276 275 273 273 272 272 273
287 288 290 291 292 292 292 294 294 295 294 294 292 291 290 290 288 286 286 284 281 278 278 278 277 276 275 273 272 271 271 270 270 271 273 274 275 274 273 273 272 271 272
288 289 290 291 292 294 294 294 294 293 294 293 292 291 291 291 289 287 285 284 281 278 277 278 278 277 275 273 272 270 270 271 271 271 272 273 274 273 273 273 272 273 273
288 289 290 290 291 292 294 294 294 294 293 294 293 292 292 290 288 288 288 285 282 279 278 278 279 279 277 274 272 270 270 269 271 272 273 274 275 275 274 273 273 272 273
288 290 290 290 291 291 292 292 293 292 292 293 292 292 291 290 288 287 287 285 283 281 280 279 279 278 277 275 273 272 272 272 271 272 273 275 275 275 274 273 274 274 274
289 290 291 290 291 291 292 292 292 291 291 292 292 291 290 289 287 286 286 285 283 283 282 280 279 277 276 275 273 272 272 271 272 273 273 274 275 275 273 273 273 274 273
289 290 290 291 291 291 291 292 292 291 290 291 291 290 289 289 288 287 286 285 285 284 282 280 279 278 276 275 274 272 271 271 272 273 273 272 273 273 273 273 273 273 272
289 290 290 290 290 290 291 291 292 291 291 291 290 289 289 289 289 288 287 287 286 285 283 281 280 279 278 277 275 274 272 271 272 273 273 272 271 272 272 271 271 271 270
289 289 289 289 290 289 290 290 291 292 291 291 290 290 290 289 289 289 288 286 285 285 284 282 281 281 280 279 277 275 273 272 273 273 273 272 271 271 271 270 271 271 271
289 289 289 290 290 290 289 289 290 291 291 291 291 290 290 290 289 288 288 286 284 283 283 282 282 282 280 279 277 276 275 274 273 274 274 273 271 270 271 271 272 272 273
288 289 290 291 291 291 290 290 290 290 291 292 292 291 289 289 290 289 288 287 285 284 284 283 282 282 282 280 278 277 276 276 275 274 274 272 271 271 271 271 272 272 272
288 290 291 291 291 292 291 290 291 291 292 292 292 290 289 288 287 288 287 286 285 285 285 284 283 283 283 281 279 278 276 275 275 273 273 273 273 272 272 272 271 271 272
288 289 290 291 292 293 293 292 292 292 292 292 291 290 290 288 286 286 285 284 284 285 285 284 283 284 283 282 280 279 276 274 274 274 274 273 273 273 272 272 271 270 270
289 289 290 291 292 293 294 294 293 292 292 291 291 290 290 289 288 286 285 285 284 284 284 284 284 283 283 282 281 280 277 275 274 274 276 275 274 274 273 272 272 271 270
Height
5810 5809 5807 5806 5804 5802 5801 5799 5797 5796 5794 5793 5792 5791 5790 5789 5788 5788 5787 5787 5787 5788 5788 5788 5789 5789 5789 5789 5789 5788 5788 5788 5788 5787 5786 5785 5784 5783 5783 5783 5782 5782 5781
5805 5803 5802 5800 5799 5797 5795 5794 5792 5790 5789 5787 5786 5785 5784 5783 5783 5782 5782 5782 5782 5782 5783 5783 5783 5783 5783 5783 5783 5783 5783 5782 5782 5781 5780 5779 5778 5777 5777 5776 5776 5776 5775
5799 5798 5796 5795 5793 5792 5790 5788 5786 5785 5783 5782 5780 5779 5779 5778 5777 5777 5776 5777 5777 5777 5777 5777 5777 5777 5777 5777 5777 5777 5776 5776 5775 5775 5774 5773 5772 5771 5770 5770 5770 5770 5769
5794 5792 5791 5789 5788 5786 5784 5782 5781 5779 5777 5776 5774 5773 5773 5772 5771 5771 5770 5770 5771 5771 5771 5771 5771 5771 5771 5771 5771 5770 5770 5769 5768 5768 5768 5767 5766 5765 5764 5764 5764 5763 5763
5788 5787 5786 5784 5782 5781 5779 5777 5775 5773 5771 5770 5768 5767 5766 5765 5765 5764 5764 5764 5764 5764 5765 5765 5765 5764 5764 5764 5764 5763 5763 5762 5762 5761 5761 5761 5760 5759 5758 5758 5758 5758 5757
5782 5781 5780 5778 5777 5775 5773 5771 5769 5767 5766 5764 5762 5761 5760 5759 5758 5758 5757 5758 5758 5758 5758 5758 5758 5757 5757 5757 5756 5756 5756 5755 5755 5754 5754 5754 5753 5753 5752 5752 5752 5752 5752
5776 5775 5774 5772 5771 5769 5767 5765 5763 5761 5760 5758 5756 5755 5753 5752 5751 5751 5750 5750 5750 5750 5750 5750 5750 5750 5750 5749 5749 5748 5748 5747 5747 5747 5747 5747 5746 5746 5746 5745 5745 5745 5745
5770 5769 5768 5766 5765 5763 5761 5759 5757 5755 5753 5751 5750 5748 5746 5745 5744 5743 5743 5742 5742 5743 5742 5742 5742 5742 5742 5742 5741 5741 5740 5740 5740 5740 5740 5740 5739 5739 5738 5739 5739 5739 5739
5764 5762 5761 5759 5757 5756 5754 5752 5750 5748 5746 5744 5742 5741 5739 5737 5736 5736 5735 5735 5735 5735 5734 5734 5734 5734 5734 5733 5733 5733 5733 5733 5732 5732 5732 5732 5731 5732 5731 5731 5731 5731 5732
5757 5756 5754 5753 5751 5749 5747 5745 5743 5741 5739 5737 5735 5733 5731 5730 5728 5728 5727 5727 5727 5727 5726 5726 5725 5725 5725 5725 5724 5724 5724 5724 5724 5724 5724 5724 5724 5724 5724 5724 5724 5724 5724
5750 5749 5747 5745 5744 5742 5740 5738 5736 5734 5731 5729 5727 5725 5723 5722 5720 5720 5719 5718 5718 5718 5717 5717 5716 5716 5716 5716 5715 5715 5715 5715 5715 5715 5716 5716 5716 5716 5715 5715 5715 5715 5715
5743 5741 5740 5738 5736 5734 5732 5730 5728 5725 5723 5721 5719 5717 5715 5713 5712 5711 5710 5709 5708 5708 5708 5708 5707 5706 5706 5706 5706 5706 5706 5706 5706 5706 5706 5707 5707 5707 5706 5706 5706 5706 5706
5735 5734 5732 5731 5728 5726 5724 5721 5719 5716 5714 5712 5710 5708 5706 5705 5703 5702 5701 5700 5699 5698 5697 5697 5697 5696 5696 5696 5696 5696 5696 5696 5696 5697 5696 5697 5697 5697 5697 5696 5696 5696 5696
5728 5726 5724 5722 5720 5718 5715 5713 5710 5708 5705 5703 5701 5699 5697 5695 5694 5692 5691 5690 5689 5688 5687 5687 5686 5686 5685 5685 5685 5685 5685 5686 5686 5686 5686 5686 5686 5686 5686 5686 5686 5686 5686
5719 5717 5716 5714 5711 5709 5706 5703 5701 5699 5696 5693 5691 5689 5688 5686 5684 5683 5681 5680 5679 5678 5677 5677 5676 5675 5675 5674 5674 5675 5675 5675 5675 5676 5676 5676 5676 5676 5675 5676 5676 5675 5676
5710 5708 5706 5704 5702 5700 5697 5695 5692 5690 5687 5684 5682 5680 5678 5676 5674 5673 5671 5670 5668 5668 5667 5666 5666 5665 5664 5664 5664 5664 5664 5665 5665 5665 5665 5665 5665 5665 5665 5665 5664 5664 5664
5700 5698 5696 5694 5692 5690 5687 5685 5683 5681 5678 5675 5673 5670 5668 5666 5665 5663 5661 5660 5658 5658 5657 5656 5656 5655 5654 5654 5653 5654 5654 5654 5654 5654 5654 5654 5654 5654 5654 5653 5653 5652 5652
5690 5688 5686 5684 5682 5679 5677 5675 5673 5671 5669 5666 5663 5661 5659 5657 5655 5653 5651 5650 5649 5648 5647 5646 5645 5644 5643 5643 5643 5643 5643 5643 5643 5643 5643 5643 5643 5642 5642 5642 5641 5641 5640
5680 5678 5676 5673 5671 5669 5667 5665 5662 5660 5658 5656 5653 5651 5649 5647 5645 5642 5641 5639 5638 5637 5636 5635 5634 5633 5632 5632 5632 5632 5632 5632 5632 5631 5631 5631 5631 5631 5630 5630 5630 5629 5629
5669 5667 5665 5663 5660 5658 5656 5654 5652 5649 5647 5645 5643 5641 5639 5637 5635 5633 5631 5629 5627 5626 5625 5624 5623 5622 5621 5621 5620 5620 5620 5620 5620 5620 5619 5619 5619 5619 5619 5619 5618 5618 5618
5659 5657 5654 5652 5650 5648 5646 5644 5642 5639 5637 5635 5633 5630 5628 5626 5624 5622 5620 5619 5617 5615 5614 5613 5612 5611 5610 5609 5609 5609 5608 5608 5608 5608 5608 5608 5608 5608 5608 5608 5607 5607 5607
5648 5646 5644 5641 5639 5637 5635 5633 5631 5629 5627 5625 5622 5620 5618 5616 5614 5612 5610 5608 5606 5605 5604 5602 5601 5600 5600 5599 5598 5598 5597 5597 5596 5596 5596 5597 5597 5597 5597 5597 5597 5596 5596
5637 5635 5633 5631 5629 5626 5624 5622 5620 5619 5616 5614 5612 5610 5608 5606 5604 5602 5600 5598 5596 5595 5593 5592 5591 5590 5589 5588 5587 5587 5586 5586 5586 5586 5586 5586 5586 5586 5586 5586 5586 5585 5585
5627 5625 5623 5621 5618 5616 5614 5612 5610 5608 5606 5604 5602 5599 5598 5595 5593 5592 5590 5588 5586 5585 5583 5582 5581 5579 5578 5578 5577 5576 5576 5575 5575 5575 5575 5575 5575 5575 5575 5575 5574 5574 5574
5616 5615 5612 5611 5608 5606 5604 5602 5600 5598 5595 5593 5591 5589 5587 5585 5583 5581 5579 5578 5576 5575 5573 5572 5570 5569 5568 5567 5567 5566 5565 5565 5564 5564 5564 5564 5564 5564 5563 5563 5563 5563 5563
5607 5605 5603 5601 5599 5597 5594 5592 5590 5587 5585 5583 5580 5578 5576 5574 5572 5571 5569 5567 5566 5564 5563 5561 5560 5559 5558 5557 5556 5556 5555 5554 5554 5553 5553 5553 5553 5552 5552 5552 5552 5551 5551